Pratt, KS

7:13 PM CST on February 10, 2016 (GMT -0600)
Pratt Industrial

Weather History for KPTT - June, 2013

Change the Weather History Date:

Wednesday, June 19, 2013

  Actual Average (KP28) Record (KP28)
Temperature  
Mean Temperature 75 °F 78 °F  
Max Temperature 86 °F 90 °F 110 °F (2011)
Min Temperature 64 °F 66 °F 45 °F (1976)
Degree Days  
Heating Degree Days 0 0  
Month to date heating degree days 0  
Since 1 June heating degree days 0  
Since 1 July heating degree days 4455  
Cooling Degree Days 10 13  
Month to date cooling degree days 196  
Year to date cooling degree days 352  
Since 1 June cooling degree days 196  
Growing Degree Days 25 (Base 50)    
Moisture  
Dew Point 60 °F    
Average Humidity 62    
Maximum Humidity 88    
Minimum Humidity 35    
Precipitation  
Precipitation 0.00 in 0.12 in 1.03 in (1993)
Month to date precipitation 2.82  
Year to date precipitation 12.56  
Snow  
Snow 0.00 in 0.00 in - ()
Month to date snowfall 0.0  
Since 1 June snowfall 0.0  
Since 1 July snowfall 8.5  
Snow Depth -    
Sea Level Pressure  
Sea Level Pressure 29.97 in    
Wind  
Wind Speed 12 mph (SSE)    
Max Wind Speed 20 mph    
Max Gust Speed 25 mph    
Visibility 10 miles    
Events      
T = Trace of Precipitation, MM = Missing Value Source: NWS Daily Summary

Daily Weather History Graph

Daily Weather History Graph

Search for Another Location

Airport or City:

Trip Planner

Search our weather history database for the weather conditions in past years. The results will help you decide how hot, cold, wet, or windy it might be!

Date:

Astronomy

Jun. 19, 2013 Rise Set
Actual Time 6:13 AM CDT 8:59 PM CDT
Civil Twilight 5:41 AM CDT 9:30 PM CDT
Nautical Twilight 5:02 AM CDT 10:10 PM CDT
Astronomical Twilight 4:18 AM CDT 10:54 PM CDT
Moon 4:57 PM CDT (6/19) 2:55 AM CDT (6/19)
Length of Visible Light 15h 49m
Length of Day
14h 46m
Waxing Gibbous, 80% of the Moon is Illuminated
Jun 19
Waxing Gibbous
Jun 23
Full
Jun 29
Last Quarter
Jul 8
New
Jul 15
First Quarter

Hourly Weather History & Observations

Time (CDT) Temp. Heat Index Dew Point Humidity Pressure Visibility Wind Dir Wind Speed Gust Speed Precip Events Conditions
12:15 AM 66.2 °F - 60.8 °F 83% 30.03 in 10.0 mi ESE 9.2 mph - N/A   Clear
12:35 AM 68.0 °F - 60.8 °F 78% 30.03 in 10.0 mi SE 10.4 mph 17.3 mph N/A   Clear
12:55 AM 66.2 °F - 60.8 °F 83% 30.04 in 10.0 mi SE 9.2 mph 20.7 mph N/A   Clear
1:15 AM 64.4 °F - 60.8 °F 88% 30.04 in 10.0 mi SE 10.4 mph - N/A   Clear
1:35 AM 64.4 °F - 60.8 °F 88% 30.03 in 10.0 mi SE 10.4 mph - N/A   Clear
1:55 AM 64.4 °F - 60.8 °F 88% 30.03 in 10.0 mi SE 9.2 mph - N/A   Clear
2:15 AM 66.2 °F - 60.8 °F 83% 30.03 in 10.0 mi SE 9.2 mph - N/A   Clear
2:35 AM 66.2 °F - 60.8 °F 83% 30.03 in 10.0 mi SSE 10.4 mph - N/A   Clear
2:55 AM 68.0 °F - 59.0 °F 73% 30.02 in 10.0 mi SSE 10.4 mph 17.3 mph N/A   Clear
3:15 AM 68.0 °F - 60.8 °F 78% 30.02 in 10.0 mi SSE 11.5 mph - N/A   Clear
3:35 AM 68.0 °F - 60.8 °F 78% 30.01 in 10.0 mi South 12.7 mph - N/A   Clear
3:55 AM 68.0 °F - 60.8 °F 78% 29.99 in 10.0 mi South 12.7 mph - N/A   Clear
4:15 AM 68.0 °F - 60.8 °F 78% 29.99 in 10.0 mi South 13.8 mph - N/A   Clear
4:35 AM 68.0 °F - 60.8 °F 78% 29.98 in 10.0 mi South 13.8 mph 19.6 mph N/A   Clear
4:55 AM 68.0 °F - 60.8 °F 78% 29.99 in 10.0 mi SSE 9.2 mph - N/A   Clear
5:15 AM 68.0 °F - 60.8 °F 78% 30.00 in 10.0 mi South 6.9 mph - N/A   Clear
5:35 AM 66.2 °F - 60.8 °F 83% 30.00 in 10.0 mi South 5.8 mph - N/A   Clear
5:55 AM 66.2 °F - 60.8 °F 83% 30.00 in 10.0 mi South 8.1 mph - N/A   Clear
6:15 AM 64.4 °F - 60.8 °F 88% 30.00 in 10.0 mi South 6.9 mph - N/A   Clear
6:35 AM 68.0 °F - 60.8 °F 78% 30.00 in 10.0 mi South 5.8 mph - N/A   Clear
6:55 AM 66.2 °F - 60.8 °F 83% 30.00 in 10.0 mi SSE 5.8 mph - N/A   Clear
7:15 AM 68.0 °F - 60.8 °F 78% 30.00 in 10.0 mi SE 6.9 mph - N/A   Clear
7:35 AM 68.0 °F - 60.8 °F 78% 30.00 in 10.0 mi SSE 8.1 mph - N/A   Scattered Clouds
7:55 AM 68.0 °F - 60.8 °F 78% 30.00 in 10.0 mi SSE 9.2 mph - N/A   Scattered Clouds
8:15 AM 69.8 °F - 62.6 °F 78% 29.99 in 10.0 mi SSE 9.2 mph - N/A   Clear
8:35 AM 69.8 °F - 62.6 °F 78% 29.99 in 10.0 mi SE 8.1 mph - N/A   Clear
8:55 AM 71.6 °F - 62.6 °F 73% 29.99 in 10.0 mi SSE 10.4 mph - N/A   Clear
9:15 AM 71.6 °F - 62.6 °F 73% 30.00 in 10.0 mi South 11.5 mph - N/A   Clear
9:35 AM 73.4 °F - 62.6 °F 69% 30.00 in 10.0 mi South 9.2 mph - N/A   Clear
9:55 AM 77.0 °F - 60.8 °F 57% 30.00 in 10.0 mi South 13.8 mph - N/A   Clear
10:15 AM 77.0 °F - 60.8 °F 57% 30.00 in 10.0 mi South 15.0 mph 18.4 mph N/A   Clear
10:35 AM 77.0 °F - 60.8 °F 57% 30.00 in 10.0 mi South 12.7 mph 25.3 mph N/A   Clear
10:55 AM 78.8 °F - 59.0 °F 51% 29.99 in 10.0 mi South 18.4 mph - N/A   Clear
11:15 AM 78.8 °F - 59.0 °F 51% 29.99 in 10.0 mi South 15.0 mph - N/A   Clear
11:35 AM 80.6 °F 80.8 °F 57.2 °F 45% 29.99 in 10.0 mi SSE 16.1 mph - N/A   Clear
11:55 AM 80.6 °F 80.5 °F 55.4 °F 42% 29.99 in 10.0 mi SSE 13.8 mph - N/A   Clear
12:15 PM 80.6 °F 80.5 °F 55.4 °F 42% 30.00 in 10.0 mi SSE 13.8 mph 25.3 mph N/A   Clear
12:35 PM 82.4 °F 82.0 °F 57.2 °F 42% 30.00 in 10.0 mi South 13.8 mph 21.9 mph N/A   Clear
12:55 PM 82.4 °F 82.0 °F 57.2 °F 42% 29.99 in 10.0 mi South 13.8 mph 19.6 mph N/A   Clear
1:15 PM 82.4 °F 82.5 °F 59.0 °F 45% 29.98 in 10.0 mi SSE 13.8 mph 20.7 mph N/A   Scattered Clouds
1:35 PM 82.4 °F 82.5 °F 59.0 °F 45% 29.98 in 10.0 mi South 15.0 mph - N/A   Clear
1:55 PM 84.2 °F 83.8 °F 59.0 °F 42% 29.97 in 10.0 mi SSE 16.1 mph 23.0 mph N/A   Scattered Clouds
2:15 PM 82.4 °F 82.0 °F 57.2 °F 42% 29.96 in 10.0 mi SSE 16.1 mph 23.0 mph N/A   Scattered Clouds
2:35 PM 82.4 °F 82.5 °F 59.0 °F 45% 29.96 in 10.0 mi South 13.8 mph 24.2 mph N/A   Clear
2:55 PM 84.2 °F 83.5 °F 57.2 °F 40% 29.96 in 10.0 mi SSE 13.8 mph 23.0 mph N/A   Scattered Clouds
3:15 PM 82.4 °F 82.5 °F 59.0 °F 45% 29.95 in 10.0 mi SSE 13.8 mph 21.9 mph N/A   Clear
3:35 PM 86.0 °F 84.5 °F 55.4 °F 35% 29.94 in 10.0 mi South 16.1 mph 24.2 mph N/A   Scattered Clouds
3:55 PM 86.0 °F 84.5 °F 55.4 °F 35% 29.94 in 10.0 mi SSE 16.1 mph - N/A   Clear
4:15 PM 86.0 °F 84.5 °F 55.4 °F 35% 29.93 in 10.0 mi SSE 19.6 mph 24.2 mph N/A   Scattered Clouds
4:35 PM 84.2 °F 83.0 °F 55.4 °F 37% 29.93 in 10.0 mi SSE 18.4 mph 25.3 mph N/A   Scattered Clouds
4:55 PM 84.2 °F 83.5 °F 57.2 °F 40% 29.93 in 10.0 mi SSE 16.1 mph 21.9 mph N/A   Scattered Clouds
5:15 PM 84.2 °F 83.8 °F 59.0 °F 42% 29.92 in 10.0 mi SSE 18.4 mph - N/A   Mostly Cloudy
5:35 PM 84.2 °F 83.8 °F 59.0 °F 42% 29.91 in 10.0 mi South 16.1 mph 19.6 mph N/A   Scattered Clouds
5:55 PM 84.2 °F 83.8 °F 59.0 °F 42% 29.90 in 10.0 mi South 15.0 mph 19.6 mph N/A   Scattered Clouds
6:15 PM 84.2 °F 83.5 °F 57.2 °F 40% 29.91 in 10.0 mi SSE 17.3 mph 23.0 mph N/A   Scattered Clouds
6:35 PM 84.2 °F 83.8 °F 59.0 °F 42% 29.91 in 10.0 mi South 18.4 mph 23.0 mph N/A   Scattered Clouds
6:55 PM 84.2 °F 83.8 °F 59.0 °F 42% 29.90 in 10.0 mi SSE 19.6 mph 23.0 mph N/A   Mostly Cloudy
7:15 PM 82.4 °F 82.5 °F 59.0 °F 45% 29.91 in 10.0 mi South 18.4 mph 23.0 mph N/A   Scattered Clouds
7:35 PM 82.4 °F 82.5 °F 59.0 °F 45% 29.91 in 10.0 mi South 18.4 mph 21.9 mph N/A   Clear
7:55 PM 80.6 °F 81.1 °F 59.0 °F 48% 29.91 in 10.0 mi SSE 13.8 mph 19.6 mph N/A   Clear
8:15 PM 80.6 °F 81.1 °F 59.0 °F 48% 29.91 in 10.0 mi SSE 13.8 mph - N/A   Clear
8:35 PM 78.8 °F - 60.8 °F 54% 29.91 in 10.0 mi SSE 15.0 mph 19.6 mph N/A   Clear
8:55 PM 78.8 °F - 60.8 °F 54% 29.92 in 10.0 mi SSE 16.1 mph 23.0 mph N/A   Clear
9:15 PM 78.8 °F - 60.8 °F 54% 29.93 in 10.0 mi SSE 16.1 mph 24.2 mph N/A   Clear
9:35 PM 77.0 °F - 62.6 °F 61% 29.94 in 10.0 mi SSE 13.8 mph 20.7 mph N/A   Clear
9:55 PM 77.0 °F - 62.6 °F 61% 29.95 in 10.0 mi SSE 11.5 mph - N/A   Clear
10:15 PM 75.2 °F - 62.6 °F 65% 29.95 in 10.0 mi SSE 13.8 mph - N/A   Clear
10:35 PM 73.4 °F - 64.4 °F 73% 29.95 in 10.0 mi SSE 11.5 mph - N/A   Clear
10:55 PM 73.4 °F - 64.4 °F 73% 29.96 in 10.0 mi SSE 13.8 mph 19.6 mph N/A   Clear
11:15 PM 73.4 °F - 64.4 °F 73% 29.96 in 10.0 mi SSE 13.8 mph - N/A   Clear
11:35 PM 73.4 °F - 64.4 °F 73% 29.95 in 10.0 mi SSE 11.5 mph 17.3 mph N/A   Clear
11:55 PM 73.4 °F - 64.4 °F 73% 29.96 in 10.0 mi SSE 12.7 mph 17.3 mph N/A   Clear